Regional Weather Roundup
Issued by NWS Goodland, KS

Home | Current Version | Previous Version | Text Only | Print | Product List | Glossary Off
Versions: 1 2 3 4 5 6 7 8 9 10 11 12 13 14 15 16 17 18 19 20 21 22 23 24 25 26 27 28 29 30 31 32 33 34 35 36 37 38 39 40 41 42 43 44 45 46 47 48 49 50

000
ASUS43 KGLD 190608
RWRGLD

GOODLAND FORECAST AREA HOURLY WEATHER ROUNDUP
NATIONAL WEATHER SERVICE GOODLAND KS
1200 AM MDT SUN APR 19 2015

...OFFICIAL OBSERVATIONS...

CITY           SKY/WX    TMP DP  RH WIND       PRES   REMARKS
GOODLAND KS    CLOUDY    47  44  90 N13       29.79S
HILL CITY KS   MOCLDY    51  47  86 E9        29.80S
IMPERIAL NEB   LGT RAIN  48  45  89 N20G30    29.87R
MCCOOK NEB     CLOUDY    52  47  83 NE14      29.82F
AKRON CO       CLOUDY    43  41  93 N20       29.91R
BURLINGTON CO  CLOUDY    46  41  82 N14       29.82S
LIMON CO       LGT RAIN  40  38  93 NW24G32   29.91R
$$

...UNOFFICIAL OBSERVATIONS...

CITY           SKY/WX    TMP DP  RH WIND       PRES   REMARKS
COLBY KS       LGT RAIN  52  50  93 E6        29.79R
GOVE KS          N/A     51  32  48 MISG        N/A
LENORA KS        N/A     50  32  50 MISG        N/A
NORTON KS      CLOUDY    50  45  81 CALM      29.80
SHARON SPRINGS   N/A     46  43  89 MISG        N/A
TRIBUNE KS     PTCLDY    46  45  93 W8        29.81F
KIT CARSON CO    N/A     44  40  86 MISG        N/A
YUMA CO          N/A     45  42  88 N12         N/A
$$



USA.gov is the U.S. government's official web portal to all federal, state and local government web resources and services.